CAPE
321 960 1324 1762 1747 1504 1574 1505 1041 1046 1100 1390 1390 1167 850 1031 906 1016 1240 828 769 1011 1104 915 1261 1246 1090 1465 1563 1415 1671 1995 2282 2252 2238 2408 2348 2182 1730 1834 1945 1947 1949
505 1314 1317 1516 1829 1490 1615 1639 1574 1187 1024 1265 1365 1141 891 663 841 1085 877 762 870 943 1398 1347 1403 1309 1348 1326 1146 1425 1624 1516 1197 1724 1842 1952 2264 1948 1915 1603 1898 1860 2051
628 1316 1062 1688 1602 1504 1778 1676 1559 1209 1024 983 904 793 647 763 782 881 983 927 889 1150 1545 1543 1518 1496 1492 1440 945 1219 1529 1690 1472 1004 1553 1507 1589 1873 1638 1707 1777 1858 2028
785 1347 1270 1087 1806 1816 1769 1846 1760 1419 1264 1107 1126 1128 1098 1047 1066 1201 1106 1068 1312 1486 1446 1582 1562 1347 1426 1327 1181 1157 1236 1291 1471 1461 1307 1309 712 1608 1554 1499 1774 1910 2199
672 1098 1193 545 1018 937 1911 1795 1742 1803 1651 1578 1414 1331 1298 1424 1385 1316 1357 1710 1765 1520 1498 1459 1403 1202 1144 1060 998 831 1142 903 1067 627 786 942 1377 1622 1970 2377 2760 2741 2566
890 1331 1519 169 527 1593 1567 1777 1615 1770 1893 1692 1611 1752 1670 1663 1459 1291 1571 1753 1396 912 1185 1208 1174 1262 1131 877 997 815 727 773 531 358 529 527 1147 1958 2343 2346 2349 2351 1987
999 1395 1679 1652 1503 1669 1976 1609 1848 1917 1930 1781 1663 1715 1732 1608 1618 1580 1389 1271 1074 701 707 867 923 897 1013 819 713 901 1300 1465 132 97 508 864 1316 1690 2004 2099 1809 1556 1414
851 1142 1008 1288 1252 1466 1721 1561 1127 1104 1231 1506 1624 1669 1788 1729 1229 1130 1449 1729 1011 851 506 641 1091 921 984 821 798 953 1160 1532 803 0 100 830 1435 1889 2004 2020 2030 2223 2227
908 1190 1198 1293 1833 1893 1907 1785 1418 768 705 1010 794 1501 1699 1916 1374 1483 1869 1168 1082 782 505 457 652 875 935 636 494 973 1183 1400 797 72 0 622 1319 1804 2028 2059 2242 2184 2076
986 920 1077 1280 1056 1331 1466 1627 990 654 492 145 244 584 1377 1863 1522 1784 933 739 630 691 720 676 540 705 884 657 1112 896 1498 1338 773 353 101 698 1115 1845 2102 1961 1924 2017 1702
597 641 991 468 646 623 225 976 1155 220 323 19 269 421 1499 1744 1414 1188 407 449 472 613 438 383 230 817 382 397 898 481 622 426 391 187 609 866 1083 1289 1176 1543 1372 1360 1311
202 421 486 212 176 362 749 811 680 287 216 349 252 1190 1464 1378 889 778 294 381 879 455 70 425 718 667 34 24 610 146 201 408 540 604 495 513 676 1418 1357 1416 1376 1485 1664
58 126 363 117 415 547 555 580 526 363 227 325 541 1150 1267 1121 493 274 240 196 231 252 44 37 0 2 209 147 204 24 45 256 305 364 552 445 490 1128 1292 1299 1396 1459 1491
28 27 197 287 384 389 297 458 457 331 309 283 501 727 666 484 463 432 295 71 111 93 80 14 74 42 32 34 20 33 121 144 275 381 314 789 560 1046 1537 1474 1463 1536 1596
47 39 154 170 324 169 367 483 425 233 249 189 284 322 252 299 190 332 311 36 44 93 20 4 81 102 125 78 1 2 68 317 295 620 357 735 512 1059 2090 1899 1691 1715 1717
59 97 293 168 169 95 223 247 194 205 168 106 167 147 46 52 141 308 287 32 167 139 76 30 25 64 12 0 61 96 169 272 410 706 561 682 766 952 1746 1889 1923 1812 1801
107 151 310 357 174 104 63 99 122 185 122 101 115 86 16 39 423 318 185 101 164 234 93 58 104 57 26 0 2 49 116 114 142 44 412 535 894 1539 1683 1745 1896 1783 1877
91 170 258 373 164 192 36 53 85 112 73 115 94 74 136 372 575 166 189 255 304 203 24 46 91 13 0 0 0 0 0 57 220 95 58 128 465 683 1215 1724 1791 1642 1590
123 144 231 273 74 155 47 60 53 78 14 145 132 91 274 616 659 407 329 336 212 51 62 132 210 1 0 0 31 30 13 9 91 141 333 358 213 446 704 969 1252 1261 1695
136 155 191 214 135 43 49 67 69 27 6 119 120 81 315 620 705 456 251 234 186 145 122 76 139 0 0 0 1 58 47 29 13 3 35 154 433 359 520 496 658 777 1254
163 159 169 148 171 121 7 55 56 36 0 6 68 69 226 518 710 575 251 128 124 122 118 65 0 0 0 0 8 90 1 3 51 495 333 168 408 595 523 291 274 485 920
140 173 183 182 155 120 37 71 70 54 59 43 7 17 94 334 529 762 562 474 323 195 25 0 0 0 0 0 28 46 48 65 231 561 208 23 19 323 378 200 118 104 486
136 174 170 191 195 192 152 42 3 33 13 17 35 7 21 139 441 454 689 713 582 259 121 83 104 1 13 0 0 122 167 123 94 160 396 388 87 117 277 671 561 186 115
176 173 158 196 234 228 166 124 62 79 61 34 9 10 6 106 330 390 494 465 787 620 466 105 204 139 126 28 0 0 0 61 230 139 66 149 93 0 119 241 781 667 724
210 203 161 138 203 241 216 162 98 56 14 36 31 12 13 115 328 209 265 596 627 1020 801 631 717 411 292 238 109 228 329 347 181 337 106 96 3 11 6 10 113 253 454
211 247 187 177 188 216 224 169 130 74 0 8 7 20 16 165 401 38 211 357 409 583 774 751 1041 879 676 699 819 849 680 521 274 239 195 61 28 68 12 0 10 15 16
CIN
-140 -23 -4 0 0 0 0 -2 -10 -18 -20 -10 -8 -13 -30 -17 -21 -6 -2 -25 -27 -13 -14 -26 -8 -14 -15 -6 -5 -16 -16 -7 -2 0 0 0 -1 -6 -20 -17 -23 -36 -45
-134 -17 -5 0 -1 -1 0 0 -1 -13 -20 -10 -4 -13 -31 -39 -17 -5 -13 -23 -16 -19 -2 -2 0 -6 -6 -6 -11 -4 -5 -13 -16 -2 -1 0 0 -10 -12 -36 -25 -42 -37
-95 -11 -25 -2 -2 -3 -1 0 0 -8 -17 -16 -20 -23 -41 -26 -15 -8 -7 -15 -15 -8 0 0 0 0 0 -1 -6 -3 -2 -2 -6 -8 -2 -10 -7 -7 -23 -28 -33 -39 -33
-88 -25 -16 -10 -3 0 0 0 0 0 -3 -15 -9 -13 -16 -11 -7 -1 -9 -12 -5 0 0 0 0 0 0 0 -5 -5 -9 -8 -5 -9 -18 -19 -59 -7 -18 -22 -17 -19 -7
-79 -24 -13 -84 -26 -5 0 0 0 0 0 0 0 -2 -5 -1 -2 -2 -3 0 0 0 0 0 0 0 -3 -11 -16 -26 -13 -21 -17 -53 -44 -40 -17 -6 -3 0 0 0 -1
-55 -8 -10 -126 -58 -4 -6 -3 -3 0 0 0 0 0 0 0 0 -4 0 0 0 -4 -2 -2 -3 -3 -6 -14 -17 -34 -32 -21 -39 -78 -74 -69 -18 0 0 0 0 0 -4
-30 -5 -3 -5 -2 -2 0 -3 -2 0 0 0 0 0 0 0 0 0 -4 -4 -5 -3 -3 -4 -3 -9 -13 -16 -18 -13 -9 -8 -100 -119 -60 -30 -14 -1 0 0 0 -14 -29
-41 -10 -17 -7 -10 -2 0 -3 -9 -9 -8 -7 -1 0 0 0 0 -5 -1 -1 -6 -6 -5 -6 -3 -8 -9 -23 -25 -20 -13 -3 -43 0 -131 -29 -9 -1 0 0 0 0 0
-29 -9 -12 -9 0 0 0 0 -5 -6 -8 -2 -3 -1 0 0 0 0 0 -5 -9 -5 -7 -23 -6 -8 -15 -33 -55 -43 -35 -23 -51 -116 0 -52 -10 -1 0 0 0 0 0
-13 -28 -18 -3 -19 -7 -1 0 -8 -7 -1 -42 -41 -11 -2 0 0 0 -9 -3 -22 -9 -6 -6 -8 -9 -17 -41 -42 -65 -34 -55 -74 -87 -121 -51 -16 0 0 0 0 -1 0
-16 -33 -12 -41 -29 -27 -76 -8 -3 -20 -13 -41 -41 -31 -1 -2 -1 -12 -7 -11 -37 -22 -12 -34 -67 -20 -61 -67 -42 -96 -97 -125 -114 -122 -80 -54 -23 -6 -4 0 -2 -4 -8
-61 -54 -49 -69 -75 -44 -12 -19 -21 -17 -24 -29 -50 -3 -5 -8 -29 -16 -11 -54 -29 -35 -146 -93 -31 -47 -141 -120 -96 -179 -164 -132 -96 -84 -99 -88 -54 -3 0 0 -3 -1 -1
-95 -97 -73 -88 -48 -26 -19 -31 -35 -32 -32 -33 -29 -9 -10 -11 -54 -45 -86 -123 -111 -109 -186 -260 -6 -41 -192 -198 -182 -271 -267 -178 -153 -123 -85 -94 -82 -28 -8 -7 -1 0 0
-118 -137 -86 -63 -40 -36 -38 -46 -42 -44 -30 -46 -37 -34 -38 -48 -52 -55 -102 -181 -179 -200 -238 -278 -245 -251 -275 -223 -233 -243 -227 -223 -186 -148 -162 -76 -92 -42 -7 -1 0 -1 0
-105 -137 -103 -95 -52 -71 -47 -36 -37 -61 -49 -69 -66 -65 -90 -61 -74 -80 -118 -236 -241 -248 -250 -284 -204 -173 -202 -234 -6 -23 -280 -191 -211 -138 -185 -103 -107 -33 0 0 -1 0 0
-110 -111 -73 -83 -81 -74 -52 -49 -57 -72 -74 -103 -91 -96 -124 -113 -89 -99 -123 -219 -199 -260 -242 -250 -184 -168 -172 0 -225 -242 -234 -212 -194 -146 -161 -130 -105 -70 -7 -1 -1 0 0
-117 -100 -81 -65 -82 -85 -92 -82 -69 -62 -88 -114 -111 -123 -105 -143 -89 -112 -138 -191 -204 -234 -255 -280 -229 -201 -225 0 -18 -251 -228 -250 -256 -310 -194 -168 -109 -42 -29 -15 -2 -1 0
-118 -96 -91 -75 -87 -76 -111 -106 -83 -75 -93 -94 -111 -115 -91 -91 -84 -122 -138 -164 -203 -260 -318 -270 -224 -217 0 0 0 0 0 -273 -202 -260 -297 -266 -171 -137 -78 -32 -16 -17 -11
-129 -112 -95 -86 -121 -88 -95 -90 -93 -84 -98 -78 -94 -103 -82 -55 -53 -93 -124 -151 -231 -327 -290 -245 -202 -232 0 0 -308 -280 -295 -249 -241 -214 -184 -195 -246 -186 -142 -97 -52 -38 -9
-141 -123 -116 -94 -105 -109 -90 -73 -80 -89 -111 -78 -86 -91 -69 -55 -60 -90 -130 -150 -213 -240 -255 -316 -262 0 0 0 -72 -178 -226 -259 -300 -82 -267 -245 -204 -202 -161 -143 -126 -92 -47
-165 -141 -131 -132 -97 -89 -106 -51 -59 -78 0 -143 -101 -105 -77 -64 -58 -79 -105 -160 -207 -215 -231 -304 -1 -1 0 0 -213 -139 -92 -63 -210 -191 -220 -213 -187 -174 -189 -203 -184 -126 -70
-183 -168 -147 -141 -112 -105 -96 -86 -82 -92 -111 -126 -147 -126 -105 -72 -71 -59 -76 -94 -137 -168 -264 0 0 0 0 0 -191 -174 -75 -94 -145 -157 -207 -227 -191 -198 -188 -219 -221 -219 -122
-200 -196 -176 -162 -133 -99 -88 -80 -27 -91 -122 -150 -124 -153 -156 -94 -69 -63 -65 -73 -91 -139 -148 -192 -205 -19 -112 0 0 -138 -54 -48 -116 -144 -112 -137 -183 -194 -166 -140 -145 -174 -193
-221 -216 -196 -186 -157 -129 -99 -70 -68 -51 -67 -104 -184 -196 -168 -105 -73 -60 -58 -77 -65 -83 -101 -147 -156 -177 -146 -36 0 0 0 -119 -46 -38 -112 -128 -176 0 -180 -175 -134 -138 -135
-230 -187 -233 -222 -194 -168 -139 -113 -85 -81 -91 -111 -87 -140 -164 -98 -77 -82 -78 -66 -68 -62 -66 -76 -79 -105 -114 -91 -105 -101 -103 -111 -122 -60 -45 -57 -13 -113 -224 -271 -227 -192 -164
-239 -207 -242 -217 -209 -190 -183 -157 -110 -109 0 -105 -135 -146 -168 -81 -61 -166 -97 -84 -76 -69 -58 -51 -55 -65 -73 -71 -67 -62 -48 -36 -48 -49 -50 -62 -63 -67 -159 0 -266 -265 -283
Wind_Speed
13 13 17 15 10 12 17 26 25 24 24 24 24 24 25 25 24 24 22 21 21 21 20 19 19 19 19 19 18 17 18 20 19 17 18 14 5 5 5 9 9 9 10
15 13 13 13 3 15 27 26 21 22 22 22 23 24 24 24 23 22 20 20 20 19 20 20 20 20 18 17 16 15 19 20 17 20 20 14 9 8 5 7 8 9 10
16 11 14 16 18 23 28 26 22 22 20 21 21 22 23 23 22 21 20 20 20 20 21 20 20 21 20 19 19 20 4 20 20 19 15 9 14 12 9 14 18 17 16
23 12 14 13 14 18 24 23 22 21 20 21 21 21 22 22 21 21 20 20 21 21 21 20 20 20 20 20 21 22 17 15 12 9 14 16 18 18 17 24 23 23 23
19 13 14 17 24 26 23 21 21 19 20 21 20 21 22 22 21 21 22 22 22 22 22 21 20 19 20 21 21 22 23 13 12 13 18 18 20 24 24 21 24 23 16
21 17 17 15 24 19 19 21 21 19 20 20 20 20 21 22 22 23 23 23 23 22 21 21 20 20 21 22 22 22 18 14 18 16 17 18 20 24 25 23 22 21 20
21 17 13 18 17 18 20 20 20 18 18 19 19 20 21 22 23 23 23 23 22 22 21 21 20 20 21 21 21 22 22 21 22 19 19 19 19 23 23 22 21 20 20
22 25 17 17 15 18 16 19 18 17 16 16 17 18 20 22 23 24 23 22 21 20 21 21 20 21 22 20 18 18 20 21 22 23 20 21 20 22 22 22 22 21 21
19 19 19 17 15 11 11 13 16 14 13 9 11 16 22 22 23 23 22 22 22 20 21 21 20 20 21 15 12 16 18 20 23 22 21 21 22 22 22 22 22 21 20
18 19 18 19 18 10 6 12 16 17 14 12 12 18 20 21 22 22 22 22 21 20 20 19 19 19 21 17 14 17 14 17 22 22 22 22 22 22 22 21 20 20 19
19 19 17 17 13 16 25 16 16 16 12 15 18 18 17 19 22 22 22 21 20 18 15 10 15 17 19 18 18 16 20 20 22 22 21 22 22 22 22 21 21 20 19
22 24 19 18 17 19 21 13 15 10 12 15 14 13 12 19 19 22 21 21 19 17 7 18 19 19 17 19 20 19 21 21 20 20 20 21 21 22 21 21 20 20 19
23 21 19 17 16 10 6 9 12 10 15 15 13 11 10 19 17 22 22 21 19 18 17 21 6 11 20 21 21 20 21 21 19 19 20 21 22 22 21 20 20 19 18
20 23 18 15 15 13 5 14 13 11 14 14 13 13 21 25 22 23 21 21 19 18 19 16 12 11 18 22 22 22 20 19 19 18 19 21 22 22 21 20 20 19 19
22 22 22 22 20 16 9 11 12 12 15 17 12 11 26 24 24 24 22 21 19 20 18 16 15 12 19 20 19 20 19 17 18 18 20 21 21 21 20 19 19 19 18
21 22 19 17 17 13 9 10 13 11 15 16 16 25 26 21 24 24 23 21 19 17 19 18 17 11 10 15 20 19 19 16 17 19 19 20 20 20 19 19 19 18 18
22 20 21 21 17 14 12 8 10 14 14 11 16 20 23 23 24 24 24 21 18 19 23 19 19 15 12 9 13 15 18 16 17 17 18 19 19 19 19 18 18 18 18
18 21 20 15 11 14 10 11 12 14 14 12 15 21 25 22 22 20 24 21 19 20 19 19 17 16 14 12 11 13 15 14 16 17 16 17 18 19 18 18 18 18 17
18 20 21 16 13 14 10 10 13 15 17 15 8 8 2 17 19 14 23 21 21 21 19 19 20 18 16 14 15 13 14 14 15 16 16 16 18 18 19 18 18 18 17
16 17 17 18 10 9 6 6 6 11 18 22 21 13 5 2 9 5 9 23 23 20 18 18 18 19 17 16 15 15 15 15 14 15 16 17 18 17 19 19 18 17 18
15 14 13 10 12 8 6 6 4 9 17 17 24 13 12 3 7 4 5 18 24 21 20 16 18 20 18 16 16 16 16 15 14 14 16 16 17 17 18 18 18 18 18
15 16 12 8 9 9 7 5 4 3 3 8 15 33 25 8 3 3 4 12 25 23 22 19 19 19 19 16 15 15 15 17 15 15 16 14 16 16 17 17 16 18 19
15 18 15 9 8 7 6 3 5 5 11 11 9 34 33 20 3 1 5 17 27 26 24 22 20 20 19 19 18 17 17 17 16 16 18 18 16 17 18 19 17 17 18
18 10 11 8 6 4 6 8 9 10 3 3 3 7 24 19 8 4 22 20 24 26 25 24 23 22 20 19 16 19 18 18 18 19 18 17 16 15 17 19 17 17 18
17 13 6 6 5 3 6 9 12 11 3 5 4 4 12 21 17 9 32 21 22 23 25 26 25 24 22 21 21 19 18 18 18 17 19 19 19 17 14 13 11 15 15
13 12 6 10 9 6 6 8 12 13 7 3 7 8 5 19 6 4 30 26 23 25 26 25 26 25 25 23 22 22 21 21 20 20 21 22 22 22 22 15 10 8 14
Wind_Direction
99 91 88 72 52 62 74 98 93 86 87 91 94 96 101 105 102 106 97 99 105 102 98 108 94 99 106 106 91 88 109 125 95 85 85 60 319 283 341 27 33 31 37
106 98 89 71 275 73 108 103 84 85 86 88 91 96 102 102 104 107 98 102 115 103 92 90 86 89 84 78 74 59 105 128 79 104 98 65 240 249 294 15 28 30 39
109 99 99 89 91 97 115 107 90 89 86 89 89 95 102 108 107 108 106 105 110 103 101 84 85 91 82 91 97 94 244 162 173 100 85 36 214 230 250 70 88 83 73
119 102 99 81 84 90 103 100 97 93 92 95 95 98 104 112 108 112 109 108 109 109 106 89 92 81 83 88 110 140 183 120 226 243 208 207 202 201 210 149 122 128 138
113 104 102 103 138 130 104 98 98 90 95 100 100 102 110 116 112 113 115 114 116 111 105 91 84 76 95 112 116 137 146 209 238 220 196 196 190 171 168 186 166 166 211
115 110 112 103 130 107 98 109 103 99 102 102 102 103 107 113 117 116 119 117 122 116 107 102 93 99 116 127 127 128 189 200 194 209 201 198 190 161 154 179 182 189 196
118 114 106 114 110 111 113 113 107 98 96 101 102 100 105 113 119 118 120 120 126 115 106 101 114 129 136 141 141 138 143 170 172 185 193 198 202 175 175 188 194 195 196
122 136 115 112 105 113 104 115 105 101 91 98 94 95 104 114 119 121 121 128 125 134 102 103 124 122 125 163 170 176 170 171 160 163 189 189 200 183 187 182 177 176 177
118 117 116 112 102 84 86 95 107 89 72 35 58 84 120 117 120 124 124 132 126 129 105 123 79 135 135 184 215 192 186 175 157 163 179 186 187 184 168 171 169 178 185
118 121 119 124 114 88 329 98 116 107 84 71 69 102 117 119 124 125 129 130 120 109 118 130 119 142 139 181 190 180 209 189 155 154 161 167 171 179 172 183 189 196 199
126 127 121 118 94 110 188 122 126 113 76 101 119 115 102 107 133 144 141 134 115 100 17 226 180 175 163 182 177 179 163 157 157 151 156 149 158 172 175 184 188 195 200
142 147 132 127 126 137 151 105 108 70 83 100 103 94 81 115 110 159 160 129 109 83 120 111 102 160 181 168 162 167 158 153 161 158 157 143 142 181 176 181 190 195 200
147 146 142 134 125 95 49 65 81 59 102 106 96 81 69 119 99 166 143 131 124 127 122 82 256 207 164 158 157 159 156 158 166 166 162 147 148 167 173 180 185 190 190
147 153 141 134 127 119 46 113 96 83 105 103 94 96 132 160 183 159 126 138 127 84 122 192 222 218 186 153 140 135 151 157 157 164 165 156 149 156 167 173 178 184 189
151 153 155 154 148 132 98 100 101 95 109 118 92 89 168 181 184 152 145 147 125 104 155 185 192 196 173 163 163 155 150 166 161 172 157 147 146 159 172 175 179 186 193
156 158 150 142 138 123 107 102 114 95 113 116 116 169 182 212 188 177 155 147 137 112 131 190 192 210 204 182 157 159 156 169 169 158 161 158 147 154 173 185 184 186 191
160 154 155 153 143 132 121 102 107 116 118 107 121 130 213 206 197 163 151 148 142 131 171 197 174 207 234 236 199 183 168 165 160 165 158 154 157 169 173 177 184 186 195
152 159 154 143 135 142 126 121 122 125 127 118 124 139 209 219 201 124 147 153 145 138 165 214 204 205 216 255 239 209 185 196 184 167 169 172 173 176 179 182 185 191 193
153 155 158 145 142 144 136 129 131 135 138 132 271 116 273 245 233 105 155 151 144 136 139 187 221 223 218 221 209 227 213 211 192 169 159 164 174 175 181 185 189 196 202
151 156 156 155 134 130 121 125 113 132 145 153 151 130 101 327 284 1 112 159 176 167 155 144 194 241 240 240 245 248 226 211 190 163 188 180 181 161 180 186 191 193 197
156 151 149 143 145 129 127 139 142 143 149 153 169 259 133 303 299 343 57 141 185 189 168 137 196 222 236 247 256 262 244 238 243 204 203 177 174 166 177 181 191 196 194
161 160 155 150 149 142 138 141 285 166 157 149 157 192 190 272 337 330 321 152 178 185 189 162 166 179 223 249 271 268 260 252 247 212 224 226 206 175 182 183 179 191 193
166 166 160 154 152 148 136 126 298 289 286 284 263 227 229 258 134 297 292 264 215 212 202 189 189 196 215 217 249 250 265 249 240 242 242 229 228 213 201 216 190 180 188
175 169 165 158 162 166 147 144 147 151 164 253 227 244 247 260 274 266 235 258 250 239 224 203 215 227 245 249 273 228 266 252 252 260 266 243 217 213 208 210 187 187 192
169 169 190 167 173 187 154 150 156 158 168 157 164 193 259 255 265 158 214 257 260 256 250 240 228 227 241 244 242 262 264 258 220 231 261 271 262 237 187 170 157 184 180
169 170 189 165 159 168 160 153 157 160 163 211 165 159 234 252 260 228 237 251 260 258 254 258 250 250 239 249 262 263 264 262 264 287 289 287 272 294 297 341 33 133 184